Theta_e
310 310 310 310 310 310 310 310 310 310 310 310 310 310 310 311 310 311 311 311 311 311 311 311 311 311 311 311 312 312 313 314 315 315 315 315 316 315 314 313 314 314 314 314 313 314 314 315 315 314 315 315 317 318 316 318 317 318 328 326 320 323 325 324 326 320 316 319 317 316 316 316 317 318 316 317 317 316 316 316 316 315 315 315 315 315 315 315
310 310 310 310 310 310 310 310 310 310 310 310 310 310 310 310 310 310 310 310 311 311 311 311 311 311 311 312 312 313 314 314 315 315 315 316 316 314 314 314 315 315 314 314 313 314 315 315 316 314 315 316 317 317 317 319 316 322 328 320 324 334 326 319 321 317 315 317 316 316 316 315 317 316 315 317 316 316 316 316 316 316 316 316 316 315 315 315
310 310 310 310 310 310 310 310 310 310 310 310 310 310 310 310 310 310 310 311 311 311 311 311 311 311 311 312 312 313 314 315 316 316 315 315 315 314 315 316 316 316 314 314 314 315 315 315 315 315 316 316 316 318 318 319 317 319 320 322 334 329 317 316 317 316 316 316 315 315 315 315 316 315 315 315 315 316 315 316 315 315 316 315 315 315 315 315
310 310 310 310 310 310 310 310 310 310 310 310 310 310 310 310 310 310 310 311 311 311 311 311 311 311 312 312 313 314 314 317 317 315 314 314 315 315 315 316 316 317 315 314 314 315 315 315 315 315 315 315 315 317 318 318 318 317 318 327 328 316 315 318 316 317 316 315 315 315 315 314 315 315 315 314 316 317 315 315 315 315 316 315 315 314 314 314
310 310 310 310 310 310 310 310 310 310 310 311 311 311 311 311 311 311 312 312 312 312 312 313 313 313 314 314 315 315 316 319 318 314 314 315 315 315 315 316 316 317 315 313 314 315 315 315 315 316 316 315 315 316 317 318 317 318 319 321 318 313 317 318 316 317 316 314 315 314 315 315 316 315 315 315 316 317 316 316 316 315 315 314 314 314 314 314
310 310 310 310 310 310 310 311 311 311 312 312 312 312 313 313 314 314 314 314 315 315 315 315 315 316 316 317 318 318 318 320 317 313 314 314 314 314 316 317 316 317 315 313 314 315 315 315 315 316 315 314 314 315 315 317 317 319 320 316 316 315 316 317 317 317 316 315 314 314 315 315 314 315 315 314 315 317 316 316 315 315 315 314 314 314 314 314
310 309 310 310 310 310 311 311 312 313 313 314 314 315 315 316 316 317 318 319 319 319 319 320 320 321 321 321 322 322 321 321 319 317 317 315 314 316 317 317 316 316 315 314 314 314 315 315 315 315 315 314 314 314 314 315 315 319 321 316 316 316 315 317 317 316 316 315 314 314 314 313 314 315 315 314 316 317 316 315 314 314 314 314 314 314 314 314
309 309 310 310 310 311 311 312 313 314 314 315 316 317 318 319 320 320 321 321 321 321 321 322 322 322 322 321 322 322 321 322 322 320 320 318 317 317 317 317 316 316 314 314 313 314 315 315 315 314 314 314 313 313 313 314 314 318 321 316 314 315 315 316 315 315 315 314 314 314 312 312 313 314 313 315 317 317 316 315 314 314 314 314 314 314 314 314
309 309 309 310 310 311 312 313 314 315 316 317 319 319 320 320 321 321 321 320 320 320 320 320 320 319 319 317 318 320 320 321 321 322 322 320 319 318 318 317 316 315 314 314 313 314 315 314 315 315 314 314 314 313 313 315 315 316 317 315 314 314 314 315 315 315 315 314 314 313 313 313 312 313 314 316 317 316 316 314 314 314 314 315 314 313 314 313
309 309 309 310 311 312 313 314 316 317 318 319 319 320 320 320 320 320 320 320 319 319 319 319 318 318 317 316 316 318 320 321 321 322 323 322 320 318 317 317 316 315 314 314 313 314 315 315 316 315 315 315 314 314 312 314 315 314 313 313 313 313 313 314 314 314 314 313 313 313 314 312 311 314 317 318 316 315 315 314 313 314 314 314 314 313 313 313
308 309 309 310 311 313 315 317 318 319 319 319 319 320 320 320 320 320 319 319 319 319 318 318 318 317 317 316 315 317 319 321 321 321 321 322 321 318 317 316 316 316 316 316 314 314 314 315 316 315 316 315 314 313 313 313 314 313 312 313 313 312 313 313 313 313 313 314 313 313 312 311 311 313 317 317 315 314 313 313 312 313 313 313 313 313 313 313
308 309 310 312 314 316 318 319 319 318 319 319 319 319 319 319 319 318 318 318 318 318 318 318 318 318 317 316 315 317 319 319 319 319 319 320 320 318 317 315 316 317 319 319 317 315 314 315 316 316 316 315 314 314 314 313 313 313 312 314 316 314 315 314 312 312 312 314 314 312 314 315 314 315 318 316 315 314 312 312 312 311 312 312 313 312 312 312
309 310 312 314 317 318 319 318 318 318 318 318 319 318 318 318 318 317 318 318 318 318 319 319 319 319 317 316 317 318 318 318 318 318 317 318 318 317 316 315 317 318 320 320 317 315 315 316 316 316 316 314 315 314 314 313 312 314 311 313 317 317 320 315 310 312 312 313 313 312 317 324 321 316 316 316 315 314 312 312 311 311 311 311 311 311 311 311
310 311 314 316 318 318 317 317 317 317 317 317 317 317 317 317 317 318 318 318 319 319 319 320 320 320 318 317 319 318 318 318 318 318 317 317 317 317 317 317 318 318 318 317 316 315 315 316 316 316 316 315 315 313 315 314 314 315 311 315 318 317 326 321 310 312 314 313 312 312 318 325 324 317 314 315 314 314 312 310 310 310 310 310 310 310 310 310
311 313 315 317 317 316 316 316 316 317 317 317 317 317 317 317 318 318 318 319 319 319 320 320 320 320 317 317 319 318 318 318 318 318 317 317 317 317 317 317 317 316 317 315 315 316 316 316 316 316 315 314 315 315 319 321 322 321 314 323 325 316 325 325 310 310 315 313 310 313 319 321 320 316 314 313 313 314 311 310 310 309 309 308 308 308 308 309
312 314 316 317 316 315 315 315 316 316 316 316 316 317 317 318 318 319 320 320 320 321 321 321 320 319 317 317 318 318 318 318 318 318 317 317 317 317 316 316 316 315 315 314 315 316 316 317 315 315 314 312 317 325 327 323 325 327 318 323 329 319 320 321 313 310 311 312 311 312 318 319 318 314 313 312 312 313 311 310 309 308 308 307 307 307 307 308
313 315 315 316 315 315 315 315 315 316 316 316 317 317 318 319 319 320 321 321 321 321 321 321 320 318 318 318 318 318 318 318 318 317 317 317 316 316 316 316 316 315 314 314 315 315 315 315 313 314 313 311 316 324 325 320 324 329 319 317 324 321 317 319 319 313 309 313 314 312 314 317 317 313 312 312 311 311 311 310 308 307 307 306 306 306 306 307
314 314 314 314 314 314 314 315 315 316 316 317 318 319 319 320 321 321 321 322 321 320 320 319 318 320 321 319 318 318 318 318 318 317 316 316 316 316 316 315 315 314 314 313 314 314 313 312 312 316 315 311 315 317 319 322 326 328 322 319 322 320 318 318 319 316 314 316 316 316 316 317 318 314 311 311 310 311 310 308 307 305 305 305 305 305 306 306
314 314 314 313 314 314 315 315 315 316 317 318 319 320 321 322 321 321 322 322 320 320 321 320 318 322 323 318 317 318 318 318 317 317 316 316 315 315 315 315 314 313 312 313 313 312 312 312 313 316 316 314 315 315 317 322 324 324 322 323 324 322 320 318 317 315 313 316 318 317 317 318 318 315 311 310 309 309 307 306 305 304 304 304 304 304 304 304
314 314 313 314 314 315 316 316 316 317 317 319 320 321 321 321 322 322 321 321 321 321 322 321 319 321 320 317 318 318 318 318 317 316 316 316 315 315 315 313 313 312 312 316 315 311 311 315 317 317 317 316 314 313 315 317 317 318 319 320 321 320 318 316 317 316 311 313 320 317 316 318 317 315 311 308 310 308 305 304 303 302 303 303 303 303 303 303
313 313 313 314 315 316 317 317 317 317 318 320 321 321 321 321 323 323 321 320 322 321 321 321 319 319 319 319 319 319 319 318 317 316 316 315 314 314 314 312 313 313 312 313 313 310 312 316 318 317 315 314 314 313 312 314 314 314 316 317 317 318 317 314 315 316 311 313 320 315 314 318 316 314 309 306 310 308 303 303 302 301 301 301 302 301 301 301
313 313 314 315 316 317 318 318 318 318 319 321 321 321 321 320 321 321 320 320 321 321 321 321 320 320 320 320 320 320 319 318 316 315 315 314 314 314 313 313 316 317 313 311 313 313 314 316 317 314 311 312 315 314 312 313 313 314 315 315 317 317 317 318 317 316 312 313 321 317 314 318 316 315 310 304 306 304 302 303 301 301 301 300 301 300 301 301
313 313 315 316 317 318 319 319 319 319 319 321 321 321 321 321 321 321 321 321 322 322 321 321 321 321 321 321 321 320 318 318 317 316 315 314 314 314 313 313 316 318 316 314 317 317 317 319 316 311 311 313 316 316 315 314 314 316 317 316 318 317 317 322 321 317 315 313 316 316 314 317 316 315 310 303 302 302 301 302 301 300 300 300 300 300 300 301
313 314 316 317 318 319 320 320 320 320 320 321 321 321 321 321 321 321 320 320 321 321 320 322 321 321 322 321 321 321 318 318 318 317 316 314 314 313 312 313 315 318 316 314 316 317 319 319 313 311 313 315 315 316 317 316 317 319 319 317 318 318 317 320 320 318 319 316 315 314 317 324 322 318 314 305 302 302 301 301 300 300 300 300 300 300 300 301
313 314 316 318 319 321 321 321 321 321 321 321 322 321 321 321 321 320 319 320 322 321 319 320 320 320 321 320 321 319 318 318 318 318 317 315 315 314 312 312 314 317 315 314 314 316 318 314 312 315 317 315 315 317 318 318 319 321 322 319 317 318 318 318 318 316 320 323 317 313 322 334 329 321 315 307 305 304 301 300 300 299 299 300 300 300 300 301
313 315 316 318 319 321 321 320 321 322 321 321 322 321 321 321 320 319 319 323 326 322 319 320 320 320 319 318 318 317 319 319 316 318 317 315 315 314 314 313 313 316 315 313 313 315 317 313 313 319 319 317 316 318 319 318 319 321 321 319 316 315 316 318 317 317 322 324 316 311 319 330 329 325 317 309 309 306 302 301 300 299 299 299 299 299 300 300
314 315 317 318 319 320 320 320 321 322 322 322 321 321 321 321 320 318 320 326 327 322 320 319 318 318 317 316 316 318 324 320 315 316 315 314 314 313 316 315 313 314 312 313 317 317 317 316 315 317 319 320 318 320 319 316 321 324 319 319 320 317 318 320 319 318 322 320 318 319 319 319 323 326 317 310 311 308 303 302 300 299 299 299 299 299 299 300
315 316 319 321 320 320 320 320 322 322 322 322 321 321 321 321 320 318 323 331 328 320 319 317 315 315 315 315 316 317 319 316 315 316 313 313 313 312 316 316 315 316 311 314 322 317 314 318 319 316 318 318 318 321 319 316 320 322 316 316 320 319 320 324 321 320 318 314 321 326 318 315 322 324 314 309 312 313 308 305 302 299 299 298 298 298 299 300
317 318 322 323 322 321 320 320 321 321 322 322 321 322 321 320 318 318 325 331 325 318 318 316 314 313 313 314 314 312 312 312 314 315 312 312 313 312 314 313 313 316 310 312 322 318 312 313 315 317 319 318 319 319 315 317 319 314 311 315 318 318 320 323 323 320 317 316 321 323 318 317 323 325 318 311 313 316 311 305 301 300 299 298 298 298 298 300
318 321 324 324 323 323 321 321 321 322 323 322 322 322 320 319 319 323 328 329 324 318 314 314 313 312 312 314 313 310 310 310 311 312 311 312 312 311 312 312 311 315 315 313 319 318 311 308 309 314 317 314 316 312 307 312 312 308 313 319 320 322 322 322 323 319 317 320 321 321 319 317 320 326 322 315 314 313 312 307 301 299 299 298 298 298 298 299
319 322 324 323 324 323 322 321 321 322 322 322 323 321 319 319 321 328 330 325 322 319 313 314 313 310 313 316 316 311 309 310 309 312 313 311 312 311 311 312 312 317 320 317 318 316 312 311 310 311 311 310 314 313 307 308 307 310 321 323 321 324 322 322 324 320 320 324 320 317 316 314 319 324 319 316 313 308 309 309 303 299 299 298 298 298 298 299
320 322 324 323 324 323 322 322 321 322 322 322 322 320 321 322 323 329 327 321 325 322 317 317 313 311 313 315 316 313 311 311 309 312 315 313 314 313 313 316 317 321 322 319 319 317 316 317 313 310 309 311 318 318 312 311 312 316 322 322 322 323 321 324 324 321 322 321 315 313 315 314 318 319 315 315 312 304 303 304 301 299 299 298 298 297 298 299
320 321 322 322 323 323 322 322 322 322 322 322 322 320 322 325 327 328 324 323 326 320 317 318 314 313 314 314 315 312 311 313 310 310 313 313 315 314 314 316 317 322 322 318 317 317 319 319 313 312 311 311 316 318 316 316 315 316 318 321 324 322 322 326 323 318 320 318 311 311 314 316 318 316 313 311 306 300 299 301 301 300 299 299 298 298 298 298
321 321 321 322 322 322 322 322 322 322 322 322 321 321 323 326 328 327 324 324 324 318 316 316 313 313 313 315 317 313 312 314 311 311 312 312 314 316 316 314 312 319 321 316 316 317 321 322 317 316 315 313 314 315 319 320 315 314 317 318 321 324 325 325 322 320 321 320 313 310 314 321 322 313 305 302 300 298 299 301 301 300 299 299 297 297 298 298
319 320 321 321 321 322 322 322 322 322 322 322 321 322 324 326 327 327 325 324 322 320 317 315 313 314 313 315 316 313 313 315 312 312 313 313 316 318 319 315 311 316 320 318 318 316 317 323 321 314 310 312 313 311 313 317 315 313 313 315 318 321 321 319 319 318 318 319 316 313 317 321 317 308 301 300 299 298 299 299 299 299 299 298 297 297 297 297
319 319 320 320 320 321 322 322 322 322 322 321 322 324 324 325 326 326 325 322 321 320 317 316 316 316 316 316 316 313 312 315 314 313 313 313 315 316 318 318 312 312 316 318 321 317 316 322 319 311 309 309 311 311 310 313 317 313 312 317 317 315 317 319 317 313 312 317 318 315 318 319 314 309 303 302 302 299 298 298 298 298 298 297 297 297 297 297
321 320 320 320 320 321 321 322 322 321 321 320 323 325 324 323 323 323 322 319 318 317 316 319 319 317 318 317 317 316 315 316 314 313 314 315 315 314 317 318 312 310 313 316 320 320 320 323 317 312 314 309 305 309 309 308 313 315 316 317 313 312 317 320 320 318 315 317 318 316 317 318 318 314 306 303 304 302 299 297 297 297 297 297 297 297 297 298
322 321 320 320 321 321 321 322 321 320 320 320 323 324 324 323 318 316 318 316 316 317 318 322 321 318 319 318 318 318 316 317 314 313 316 315 315 316 316 317 313 309 310 311 314 318 318 322 318 312 314 312 307 311 313 309 309 314 316 312 313 318 320 317 318 320 319 318 319 321 319 316 317 316 311 310 310 304 300 298 297 297 296 297 297 298 298 298
322 320 319 320 321 321 321 321 320 319 319 321 323 323 322 322 317 315 316 316 318 320 321 323 322 320 320 319 321 319 316 317 315 314 317 315 316 315 313 315 313 308 308 310 314 318 316 319 320 312 310 312 311 313 318 315 309 310 311 309 313 319 320 318 318 318 320 319 319 321 319 318 318 316 317 318 311 303 300 299 298 297 297 298 298 298 298 298
320 317 317 319 321 321 321 320 319 318 319 321 323 321 320 319 317 316 316 317 319 320 322 324 323 322 321 319 321 321 319 319 315 315 318 316 316 316 313 315 315 310 308 308 313 317 315 316 320 315 310 312 315 316 317 316 312 311 314 313 313 314 316 318 317 316 320 321 320 319 317 321 321 313 315 318 310 302 300 300 298 297 298 299 299 299 298 298
318 316 317 318 319 320 319 318 317 318 320 321 322 320 318 318 317 316 316 317 318 318 319 323 323 322 323 321 321 322 321 321 318 318 319 317 317 318 315 313 314 313 311 311 314 317 315 317 321 318 313 315 320 316 311 313 315 314 315 315 315 315 315 317 316 316 317 318 320 319 317 321 318 308 309 313 307 301 299 299 297 297 299 300 300 299 299 300
317 317 317 317 319 319 317 317 316 317 319 320 320 319 318 317 317 316 315 315 317 317 317 320 320 320 322 321 321 321 321 322 320 319 320 320 321 321 315 311 311 313 315 317 316 314 314 318 321 320 317 317 316 310 306 310 314 313 313 314 316 315 315 317 317 317 316 315 317 317 317 317 311 304 305 305 301 299 299 299 298 299 301 301 300 300 300 301
315 316 316 317 318 317 317 317 317 317 318 318 318 317 317 317 317 317 316 315 316 318 317 318 318 318 319 320 319 320 320 321 321 320 321 322 321 318 313 311 311 313 316 319 317 313 315 319 320 319 320 316 312 311 310 310 311 312 313 314 315 315 315 315 315 316 317 317 316 316 317 316 309 302 299 299 299 299 299 300 301 302 302 302 302 301 301 302
314 314 314 315 316 316 317 318 318 318 317 316 317 317 317 317 317 317 317 316 317 318 319 319 317 316 319 319 319 319 319 320 319 319 319 320 318 314 311 312 312 313 315 317 317 315 316 319 319 319 320 317 315 315 315 313 313 313 314 314 314 314 314 312 312 313 315 316 316 315 316 315 311 304 301 300 299 299 298 300 302 303 303 303 303 302 301 301
313 313 312 313 314 315 316 317 317 317 318 317 317 318 317 316 316 316 317 316 315 316 318 319 317 316 317 318 318 319 319 319 320 319 318 318 316 312 311 311 312 312 313 314 315 315 317 318 318 318 319 319 319 318 316 315 314 312 313 313 311 311 312 312 312 313 313 314 315 315 315 313 309 306 306 305 303 303 301 299 300 302 303 303 303 303 302 301
312 312 312 311 312 313 315 315 315 316 317 317 317 317 318 318 316 315 316 316 315 315 316 317 316 316 317 317 318 319 318 318 319 319 317 318 317 312 309 310 310 310 312 312 313 315 317 316 316 317 318 318 318 317 313 313 315 314 313 313 312 310 310 311 312 312 313 313 313 313 313 312 309 307 308 307 307 308 304 300 301 303 303 303 303 303 303 302
311 312 311 311 312 312 313 313 313 315 316 316 317 316 316 317 317 316 316 316 315 315 315 315 315 317 318 317 317 318 318 317 317 317 317 317 317 311 307 308 308 308 310 310 310 314 316 315 314 315 316 315 315 314 311 310 314 315 314 313 311 308 308 309 310 311 312 312 312 312 310 311 311 309 308 308 308 307 303 300 302 303 303 303 303 303 303 302
310 310 310 310 311 312 313 313 313 314 315 315 316 316 316 317 317 317 316 314 314 315 316 316 316 317 317 317 318 318 318 317 316 316 316 316 316 312 308 308 307 306 308 307 308 312 316 315 314 313 313 312 312 311 309 309 311 312 312 313 311 307 306 307 307 308 310 310 310 309 308 308 309 308 308 308 306 304 302 301 302 301 301 301 301 301 302 301
307 308 308 308 309 309 310 312 312 313 314 314 315 316 316 316 316 316 315 315 314 315 316 316 316 316 316 316 317 318 317 317 317 316 315 314 314 314 313 312 309 305 306 308 307 308 313 315 313 311 312 311 309 308 307 308 309 309 309 310 309 307 305 305 306 306 306 306 307 307 306 305 305 305 304 303 301 301 301 301 300 300 300 301 301 301 301 301
306 307 307 307 307 306 307 310 312 313 313 313 313 314 314 314 316 315 314 315 315 314 315 316 315 315 315 315 316 317 316 316 316 316 315 313 313 313 314 314 311 306 306 308 308 306 310 313 309 308 311 310 305 304 304 305 306 307 307 307 305 304 304 304 305 304 303 304 304 304 303 303 302 301 300 300 300 300 299 299 300 300 300 301 301 301 301 300
305 305 305 306 307 306 306 308 310 312 312 312 312 312 312 313 314 314 313 313 314 314 315 315 315 314 314 315 315 316 315 314 315 315 313 313 313 312 313 312 311 309 308 307 308 308 309 309 306 307 313 310 302 301 302 301 301 302 303 303 301 302 304 304 302 303 303 303 303 302 302 303 301 299 298 299 299 297 297 298 299 300 300 300 300 300 300 299
304 304 303 304 306 306 306 307 309 310 311 311 311 311 311 311 311 312 313 312 311 312 313 314 314 314 314 314 314 314 314 312 311 309 308 308 309 309 309 308 308 310 309 307 307 308 307 308 306 307 312 308 299 298 301 302 303 304 303 302 300 300 302 302 301 301 301 302 303 302 302 302 300 298 298 299 297 295 296 298 299 299 300 300 299 298 298 297
Wind_Speed
12 11 11 10 10 9 9 9 9 8 8 8 7 8 7 7 7 7 7 7 7 7 7 7 7 8 8 9 9 9 10 11 13 13 15 14 8 5 5 4 2 0 1 2 2 3 3 3 2 1 1 2 2 2 2 2 2 2 3 3 1 3 3 4 6 5 3 3 4 4 4 1 4 6 7 6 8 14 18 21 18 12 10 11 13 13 13 14
13 13 12 12 11 11 10 10 10 9 9 9 8 8 8 7 8 8 8 7 7 8 8 8 8 8 9 9 10 11 12 13 14 14 13 7 4 6 5 3 1 1 3 3 2 3 4 4 4 2 2 3 2 1 0 1 2 2 3 2 3 5 5 5 7 5 3 3 5 5 5 4 6 6 5 4 8 13 15 21 19 13 14 16 17 15 15 15
14 13 13 12 12 11 11 11 10 10 9 9 9 8 8 8 8 8 8 8 8 9 9 9 9 10 10 10 11 12 13 15 15 12 5 4 9 7 4 1 1 2 4 3 4 6 5 4 4 3 2 2 1 1 1 1 0 1 3 1 6 6 4 6 8 6 4 5 6 6 5 6 8 7 4 3 7 11 10 14 15 15 21 22 20 17 15 15
14 14 13 13 12 12 12 11 10 10 10 9 9 9 9 8 8 9 9 9 10 10 10 10 10 10 11 11 12 12 14 16 12 4 5 9 8 4 1 2 3 4 4 4 6 7 6 4 4 3 1 1 0 1 2 2 2 1 4 3 4 4 2 6 7 6 5 4 6 7 5 7 9 6 4 2 4 8 11 12 11 16 24 23 17 14 12 12
15 14 14 13 12 12 12 11 10 10 10 9 9 9 9 9 9 9 10 10 11 11 11 11 12 12 12 13 13 13 11 9 2 7 8 7 5 3 4 6 6 6 4 5 6 8 7 5 4 3 1 1 0 1 2 3 3 2 4 6 5 3 2 8 7 5 5 5 8 8 6 8 9 7 7 4 3 8 14 17 16 19 21 18 13 11 11 10
15 15 14 14 13 12 12 11 11 10 10 10 10 11 10 10 11 11 11 12 12 13 13 13 13 13 14 13 13 12 7 2 3 7 7 8 7 7 8 10 9 9 5 6 7 8 7 5 5 4 1 1 1 2 1 2 4 2 4 6 7 6 6 11 11 10 10 9 8 8 9 10 9 11 11 9 13 17 20 20 18 17 14 11 11 11 12 12
16 15 15 14 14 13 13 12 12 12 11 12 12 12 12 12 12 12 12 12 13 13 13 13 13 13 13 13 12 10 9 9 7 7 9 11 11 11 12 12 10 9 6 7 8 8 7 6 6 4 2 1 1 4 1 1 5 3 3 5 6 8 9 13 14 14 15 13 14 12 13 12 8 9 10 15 22 20 19 16 13 10 9 10 11 12 12 11
17 16 16 15 15 14 14 13 13 12 12 13 12 12 12 12 12 12 12 11 12 12 13 13 12 12 11 12 11 8 12 13 10 10 12 13 14 14 13 11 9 9 7 9 8 8 7 7 8 5 2 1 2 3 1 2 3 4 5 5 5 8 11 14 15 18 20 19 17 12 14 15 11 9 11 20 21 13 12 10 8 6 7 10 12 12 12 11
17 17 17 16 15 15 14 13 13 13 13 13 12 12 12 12 12 11 11 11 12 12 13 12 12 12 11 11 9 7 11 11 8 8 10 12 15 14 12 10 9 8 7 10 9 9 8 7 8 7 4 3 3 3 1 0 3 5 5 6 7 11 15 16 18 21 20 18 13 9 13 14 9 6 10 16 11 7 7 5 5 5 8 12 14 13 11 11
17 17 17 16 16 15 14 14 14 13 13 13 12 12 12 12 12 12 11 11 11 12 12 12 11 11 10 11 7 5 8 8 6 7 8 10 12 12 11 9 8 6 5 9 10 10 9 7 7 7 5 3 3 3 2 2 2 2 4 7 11 14 17 16 18 22 18 15 13 10 11 10 3 2 6 8 3 2 3 4 5 6 9 11 11 11 11 10
18 17 17 16 15 15 14 14 14 13 13 13 12 12 12 12 12 12 12 11 11 11 11 11 11 10 10 10 10 8 9 8 7 7 7 9 10 10 10 9 8 5 4 7 9 10 10 9 7 6 4 2 3 3 3 3 2 3 5 8 12 13 16 16 15 18 12 7 9 9 7 5 3 3 7 7 3 5 5 6 5 6 7 7 7 9 9 9
18 17 16 15 15 14 14 14 13 13 13 13 13 13 12 12 12 11 11 11 11 11 11 11 10 10 10 11 16 15 13 12 12 11 10 10 10 10 10 10 9 7 6 7 10 11 12 11 9 6 5 3 2 1 2 2 3 4 4 5 9 9 11 13 8 5 3 2 3 4 3 3 3 7 10 7 6 8 8 7 7 4 2 1 4 6 6 7
18 17 16 15 14 14 14 14 13 13 13 13 12 12 12 12 11 11 11 11 11 11 11 11 11 11 10 11 15 14 12 13 14 14 14 12 11 11 12 11 10 10 9 9 11 12 12 11 9 8 6 3 2 1 2 3 3 4 2 1 5 7 7 7 1 2 1 2 4 5 2 6 5 12 12 5 8 9 9 8 6 4 2 2 3 4 5 5
18 16 15 14 14 14 14 14 14 13 13 12 12 12 11 11 11 11 11 11 11 11 11 11 11 11 10 12 13 13 12 12 13 14 15 14 13 13 13 12 12 12 10 10 11 11 11 9 8 7 5 4 2 1 3 5 3 2 1 2 2 2 5 6 2 2 1 1 5 6 2 7 7 11 8 5 8 10 10 7 4 3 3 3 3 2 3 3
17 16 15 14 14 14 14 14 13 13 12 12 11 11 11 11 11 11 11 11 11 11 12 12 11 10 10 12 13 12 13 13 14 15 15 15 14 13 13 12 11 11 10 11 12 11 9 8 7 4 3 3 1 0 2 4 3 2 1 3 3 2 5 10 5 4 3 1 4 6 2 6 9 11 7 5 8 11 8 4 4 3 3 2 2 1 1 1
17 17 16 15 15 15 15 14 14 13 12 11 11 11 11 11 11 11 11 11 11 11 11 11 11 9 7 10 11 11 11 12 12 13 14 14 13 12 10 9 9 10 10 10 10 10 9 7 5 3 2 2 3 3 3 4 4 3 1 3 3 3 3 7 5 0 1 2 2 2 2 4 7 9 7 7 11 10 3 2 4 4 3 2 2 2 1 1
18 17 17 16 16 16 15 14 13 13 12 11 11 11 11 11 11 11 11 11 11 11 11 9 8 7 8 11 10 10 10 10 10 11 11 11 10 9 8 8 9 10 9 8 9 8 7 6 4 2 1 2 3 4 3 3 4 3 1 2 4 4 3 4 4 4 5 3 0 1 1 6 9 13 14 11 9 3 3 3 4 4 3 4 3 3 2 1
19 18 17 17 17 16 15 14 13 13 12 11 10 10 10 10 11 11 11 11 11 8 8 9 5 2 8 13 11 9 8 8 10 11 10 8 8 8 8 8 8 9 8 6 7 7 6 4 4 1 2 2 3 5 3 5 5 3 2 3 4 3 4 5 4 3 5 3 1 1 2 9 12 14 14 10 7 3 6 8 7 6 5 5 5 4 4 3
20 19 18 18 17 16 15 14 13 13 12 11 11 10 10 10 10 12 13 13 11 6 4 8 9 4 3 7 8 8 7 7 8 10 10 9 9 9 9 8 8 9 9 5 4 7 6 3 3 1 2 4 6 8 9 9 7 6 5 5 3 4 5 6 5 5 2 2 4 5 5 9 12 11 9 10 8 7 10 11 9 8 7 7 6 6 6 6
21 20 20 19 17 16 15 14 14 14 12 11 10 9 9 8 6 8 11 14 16 14 11 11 12 12 8 5 5 7 7 7 9 11 11 10 11 10 10 9 8 7 6 4 4 4 6 4 3 6 7 9 10 11 9 4 5 4 3 3 4 5 6 5 5 5 0 0 5 4 4 8 11 8 7 10 8 8 10 11 11 10 9 9 8 8 7 8
22 21 21 19 18 16 15 15 15 14 12 11 11 9 7 6 3 4 6 11 16 18 19 18 16 18 16 12 10 9 8 9 10 12 12 12 12 10 10 9 6 3 2 3 4 3 5 5 8 11 9 9 8 9 7 2 2 2 2 3 4 5 7 6 5 5 1 2 4 2 2 9 11 5 7 9 6 7 6 9 11 11 11 10 10 9 9 9
22 23 21 20 18 16 16 16 15 14 12 11 11 11 9 7 7 8 7 8 15 18 19 21 22 24 23 20 19 16 10 9 11 14 15 15 16 12 10 9 4 3 3 3 5 2 2 4 12 12 5 5 3 5 6 5 4 2 2 2 4 4 4 7 5 5 2 3 4 2 1 9 11 3 6 8 7 7 7 10 10 11 12 11 11 11 11 11
24 23 21 20 18 16 16 16 15 14 12 12 12 12 10 8 8 10 8 7 13 18 20 22 25 28 28 25 25 22 17 13 13 16 18 18 19 15 12 9 4 4 4 4 6 4 3 7 13 9 7 6 2 4 7 3 2 3 4 3 5 3 1 4 5 5 2 1 2 2 2 7 8 1 5 7 9 12 12 12 11 11 12 12 12 12 13 14
25 24 23 20 18 16 16 16 15 14 13 13 12 11 10 8 8 8 7 5 8 12 16 21 23 26 27 24 22 21 21 18 12 14 20 22 20 13 10 9 5 4 5 7 8 7 7 8 5 4 7 7 5 3 6 5 2 4 5 6 5 4 5 6 4 5 4 3 2 1 2 5 5 3 0 4 9 11 11 12 12 11 11 12 13 13 14 16
25 25 22 19 17 16 15 15 15 14 14 13 11 11 9 8 6 5 4 3 5 7 9 14 16 18 21 20 18 17 15 15 12 12 18 24 21 11 6 9 7 5 7 7 6 6 8 8 2 5 3 5 6 5 5 7 3 4 6 9 10 8 7 6 3 5 4 4 3 3 3 5 4 3 3 3 4 6 6 9 11 10 11 12 13 14 15 17
26 25 21 18 16 14 13 13 14 14 13 12 11 11 10 7 3 1 1 2 4 4 3 8 9 9 13 13 14 12 4 8 13 13 16 22 23 12 5 6 4 4 6 5 3 3 5 6 3 5 4 5 5 5 5 7 5 2 5 8 10 7 5 5 2 1 0 4 3 2 1 5 5 3 4 4 3 4 4 5 7 8 9 11 13 14 15 17
27 25 21 17 15 15 15 13 13 14 12 12 12 11 10 8 5 1 2 3 5 5 6 6 7 7 9 10 15 13 2 4 9 12 18 22 20 14 6 4 3 3 4 5 1 2 4 4 3 5 5 5 5 5 6 7 7 3 4 4 6 6 6 5 5 4 3 3 4 3 1 3 4 4 3 4 5 2 2 2 4 7 8 11 13 14 16 17
27 24 20 18 18 18 18 15 14 14 13 11 12 13 10 9 7 3 3 2 3 4 5 5 7 7 9 15 17 10 3 5 6 8 18 21 18 11 6 6 6 4 4 6 4 3 3 4 5 7 5 4 6 4 7 10 4 5 3 6 6 6 5 4 5 3 1 1 4 4 1 2 5 4 2 2 3 4 4 4 4 7 9 10 12 14 15 17
27 23 21 22 21 18 17 16 16 15 14 11 12 14 12 10 7 4 2 3 2 4 3 5 7 6 11 15 11 4 4 3 2 6 13 16 15 7 2 6 6 4 2 3 5 3 1 3 5 7 6 6 4 1 6 9 4 4 6 7 6 5 5 4 5 3 2 1 4 6 3 1 5 5 2 1 3 6 4 5 6 9 11 11 12 13 15 17
28 25 24 25 26 23 18 19 19 16 14 13 13 15 14 10 5 3 3 4 1 2 3 6 6 6 11 10 3 2 3 1 4 10 9 8 11 5 3 5 3 4 1 3 2 3 1 1 2 4 4 5 5 3 2 4 4 7 7 6 6 5 5 3 3 4 2 3 6 9 8 5 5 5 3 3 3 4 4 4 6 9 12 13 14 14 16 18
29 27 26 26 30 30 24 22 22 19 17 15 14 17 15 6 3 3 7 2 2 2 4 4 3 5 10 7 3 3 2 1 5 10 5 3 6 4 4 4 2 3 2 4 2 5 4 1 2 2 4 6 7 5 3 3 4 6 4 4 3 3 4 4 4 3 0 5 5 5 4 5 5 5 4 4 2 1 4 5 8 12 15 17 16 16 17 18
31 31 29 26 29 31 27 23 20 20 20 16 17 19 12 2 3 6 4 2 1 3 4 4 3 5 6 3 2 5 3 2 5 6 4 3 4 4 3 4 4 2 2 4 3 4 3 4 3 1 3 6 6 5 3 4 4 5 4 5 3 2 3 3 3 0 3 6 3 1 1 2 6 6 3 4 3 4 5 5 11 18 21 21 20 19 19 20
33 33 32 30 29 30 29 24 20 22 22 20 20 16 7 2 7 7 5 2 2 3 4 4 3 4 7 4 2 4 3 2 5 4 2 3 3 5 4 2 6 4 1 4 3 0 2 5 2 1 3 7 8 5 3 1 2 5 5 5 4 2 1 3 3 1 4 5 3 2 1 2 5 3 2 4 5 6 8 8 14 24 28 25 23 22 21 21
34 34 35 35 32 33 32 26 25 25 24 26 22 11 5 7 6 6 9 7 1 2 2 4 5 5 6 4 4 5 3 2 5 5 2 3 3 4 5 4 5 4 3 3 2 4 3 4 4 5 3 8 10 6 6 6 4 4 4 5 5 5 4 4 3 3 4 4 3 2 1 3 3 2 2 2 3 5 3 4 16 25 27 26 24 23 22 22
35 35 37 36 37 38 34 30 30 27 29 31 17 6 9 10 4 4 8 6 2 2 2 4 6 5 3 3 3 5 4 3 4 5 3 4 4 4 4 5 7 5 4 4 2 3 3 5 6 3 1 7 9 5 6 7 3 2 2 4 3 4 5 2 3 5 3 2 3 2 3 4 4 1 2 2 5 8 8 11 18 22 24 25 24 23 23 22
33 35 37 39 40 40 36 34 32 30 34 29 10 6 11 7 3 3 4 4 5 5 6 3 3 4 4 2 2 5 3 1 4 4 2 3 3 5 4 4 8 8 6 5 3 2 3 4 5 3 2 3 4 4 4 3 3 2 2 3 4 4 6 3 2 1 3 2 4 2 3 5 2 1 3 4 5 6 7 9 15 18 21 23 23 24 23 22
36 37 39 41 41 39 37 37 35 35 38 25 8 9 8 2 3 3 1 3 5 7 8 4 3 5 5 4 4 6 3 2 4 4 3 3 3 5 5 4 7 13 12 7 2 3 4 3 4 1 1 2 1 3 3 3 4 5 3 5 3 2 4 3 1 2 2 3 4 1 4 4 2 2 3 4 1 1 2 5 9 13 17 19 22 24 24 23
40 40 40 43 41 38 38 37 35 37 32 14 9 12 5 2 3 2 1 2 4 5 6 5 5 4 5 5 4 5 5 4 5 4 4 3 3 5 6 4 6 12 16 10 1 2 4 1 5 1 2 2 2 4 3 4 2 5 3 3 4 3 1 2 2 2 2 4 4 3 4 4 4 4 2 3 6 6 5 5 7 11 17 20 23 26 26 25
39 34 32 41 43 38 36 34 35 35 21 7 10 11 2 2 3 1 4 3 3 3 3 3 2 1 3 5 3 4 5 5 6 5 4 3 3 4 6 3 4 6 11 11 4 2 3 2 4 2 0 1 3 2 3 2 1 3 2 1 2 2 4 3 3 3 3 4 3 4 5 4 5 5 6 8 10 10 9 8 8 14 21 24 27 29 29 28
37 22 16 31 39 34 33 33 32 26 12 5 8 7 1 3 4 4 6 3 2 2 2 2 2 2 2 3 1 3 4 5 6 5 3 4 4 4 3 3 4 2 6 10 6 1 2 2 3 2 2 1 1 2 6 6 3 3 2 2 1 1 2 1 1 3 3 3 3 4 5 5 4 3 6 8 7 11 13 10 10 17 24 28 30 32 31 30
31 12 6 21 28 30 33 29 19 12 5 4 5 3 2 3 4 5 7 7 4 1 2 3 3 3 3 3 2 4 4 4 6 4 3 4 3 2 3 5 7 6 4 5 4 2 2 2 3 1 1 3 4 4 3 5 4 4 4 5 5 3 2 2 4 2 2 2 3 4 6 6 3 1 3 5 5 10 14 13 13 20 27 29 31 32 32 30
24 6 6 17 21 29 31 17 6 5 5 5 3 3 4 3 4 6 6 7 5 1 1 2 2 3 4 3 3 4 5 4 5 4 3 4 4 3 4 6 8 9 6 3 3 3 2 3 3 2 3 4 4 3 1 3 1 2 2 3 3 3 4 5 7 3 2 1 1 1 4 5 2 1 3 4 4 11 18 17 16 22 27 28 30 32 32 31
18 7 8 15 22 32 27 7 3 5 3 3 3 3 5 4 4 5 5 6 4 2 2 2 2 4 4 3 3 4 4 3 4 4 2 3 3 2 4 7 7 7 6 2 2 3 3 2 2 1 2 1 3 4 3 3 3 1 2 1 3 3 2 3 4 2 2 3 1 1 5 4 0 1 2 1 3 11 18 18 16 20 24 25 28 31 33 33
14 8 9 14 24 33 22 5 6 9 5 3 3 4 5 4 5 7 6 6 5 4 3 2 3 4 3 2 4 4 6 4 3 3 3 3 3 2 3 5 4 3 3 2 4 5 3 2 3 1 2 1 2 3 3 3 1 2 2 1 2 3 4 3 1 3 1 4 4 3 7 4 1 3 4 3 3 7 13 15 13 13 17 21 25 29 32 34
10 5 5 14 28 33 18 4 6 9 8 6 4 6 6 2 6 11 9 8 8 6 4 3 3 4 3 2 2 2 5 4 2 2 2 2 2 1 2 3 3 2 0 3 8 8 4 2 3 4 5 7 4 2 3 2 1 2 2 3 4 5 6 3 1 3 4 4 5 6 7 2 2 4 4 3 1 2 7 10 10 10 12 16 20 24 29 32
7 3 3 9 23 28 17 7 5 6 8 10 5 5 8 5 4 9 11 9 9 8 5 2 4 4 2 3 4 3 5 3 2 2 3 3 2 1 1 3 3 4 4 4 11 9 3 1 5 7 9 9 6 4 4 3 4 4 5 7 6 6 7 5 3 4 4 2 4 8 4 1 2 3 4 4 3 3 5 6 9 11 12 13 15 18 23 28
5 3 4 5 9 14 13 9 6 3 5 10 6 3 10 10 3 4 10 8 8 10 5 2 4 5 4 6 5 4 6 4 3 3 3 4 2 1 1 1 1 5 7 8 11 8 3 3 8 10 12 9 3 4 4 4 5 7 8 9 7 5 7 7 5 6 4 3 8 8 4 3 6 6 7 7 6 5 6 7 9 11 11 12 14 16 20 26
4 2 5 6 3 4 7 8 8 4 4 8 7 4 9 13 8 6 7 4 5 10 6 1 5 8 8 9 6 4 5 4 4 5 3 3 3 1 1 1 1 5 6 6 8 6 3 5 7 8 9 6 3 4 5 4 4 4 6 9 7 7 8 8 7 8 7 6 9 5 5 6 9 6 7 9 9 8 8 11 13 13 14 16 17 20 23 25
4 1 4 6 3 0 2 5 8 7 6 5 4 5 8 13 13 8 5 3 3 6 8 6 7 9 9 8 7 6 7 6 6 6 5 4 4 3 1 1 2 4 4 3 3 4 3 3 4 5 5 4 3 3 4 5 3 3 6 9 6 5 7 7 9 10 7 6 8 6 5 8 9 7 7 9 10 10 11 16 17 18 19 20 21 22 23 22
6 4 3 3 3 1 2 1 6 6 6 4 3 4 4 6 9 6 4 5 5 3 7 9 9 7 8 8 8 9 10 8 7 7 7 6 4 4 4 3 3 3 3 3 2 2 3 2 2 4 3 2 1 0 2 3 3 5 10 10 3 3 5 9 10 6 3 6 9 7 8 11 11 7 7 11 13 12 14 19 20 20 20 18 18 18 16 14
9 9 6 2 1 2 1 1 3 3 4 5 5 4 3 4 7 5 1 6 9 6 6 10 9 5 5 7 10 12 14 11 9 8 10 10 8 9 8 6 8 6 3 4 2 2 3 1 2 3 3 3 1 2 2 2 1 5 13 11 5 5 8 9 6 5 7 9 9 6 7 10 8 1 4 10 14 13 14 17 19 19 17 15 14 12 10 9
14 11 9 4 1 2 3 1 2 3 5 5 5 5 5 7 8 7 2 5 10 10 9 11 10 6 5 8 13 17 17 13 9 8 8 8 6 6 7 9 12 10 6 6 2 1 4 4 2 3 4 2 1 2 3 4 2 7 11 9 11 11 12 9 5 7 10 8 6 7 8 8 4 1 2 8 10 10 14 17 18 18 16 15 13 11 9 9
Wind_Direction
212 211 211 210 208 209 208 208 209 211 212 214 217 219 221 224 228 234 238 244 247 253 259 263 270 276 283 289 296 301 305 308 307 307 305 298 279 239 211 199 199 292 304 303 256 203 182 151 137 138 169 126 90 86 75 28 31 41 90 98 237 192 194 187 184 184 154 256 285 327 325 261 287 301 310 298 280 298 307 309 312 312 313 318 319 321 316 316
215 214 214 213 211 212 212 212 214 214 216 219 219 222 224 226 230 237 241 247 251 255 260 264 272 276 284 292 297 302 305 307 304 306 307 292 197 170 170 174 180 298 291 279 221 189 181 168 164 148 140 133 93 96 118 337 51 73 109 111 242 200 209 199 184 191 162 268 271 288 290 249 263 285 303 282 284 306 314 315 323 335 344 347 340 334 324 319
219 218 217 215 214 213 214 215 216 216 219 221 223 226 227 231 236 242 247 252 257 260 265 269 274 280 286 293 298 303 307 310 306 304 304 148 146 147 145 152 0 320 285 251 201 191 194 196 190 162 125 120 114 160 240 293 147 96 106 138 248 215 234 233 211 224 242 276 276 290 283 255 270 278 264 233 287 304 299 303 317 334 342 345 342 336 328 324
223 222 221 219 218 217 218 218 220 221 223 226 229 232 234 239 244 248 254 258 263 265 269 272 276 281 285 291 295 300 310 315 307 263 162 144 144 150 101 346 351 335 285 237 211 205 205 205 196 174 123 64 282 250 242 225 208 180 146 187 233 186 252 263 246 254 258 271 278 293 299 284 295 288 250 265 318 301 293 304 314 325 335 341 344 344 336 332
226 226 226 225 223 221 223 222 225 227 228 232 235 239 240 242 247 252 257 261 264 268 271 274 277 280 284 287 291 296 314 332 298 167 171 177 187 247 311 326 331 328 288 228 215 210 210 200 185 175 167 318 344 290 265 213 182 182 219 239 247 179 239 283 289 289 277 296 297 303 309 295 305 301 279 283 266 273 295 312 316 321 332 342 352 360 353 348
228 230 230 229 227 225 227 226 228 231 233 235 237 242 244 247 251 255 260 264 267 269 271 273 276 279 283 285 287 291 296 304 191 179 205 226 240 270 301 309 309 314 285 222 213 210 212 201 190 192 177 347 228 211 277 198 192 223 266 265 266 248 250 279 289 288 289 299 296 297 295 290 302 300 295 280 266 281 299 308 311 324 340 349 2 7 2 360
231 231 231 231 229 227 228 228 230 234 237 240 244 249 253 257 260 262 265 268 270 272 273 274 277 278 281 282 284 285 262 253 251 236 246 250 254 268 287 291 291 300 269 216 217 211 217 214 204 199 146 23 239 220 290 252 207 206 272 280 277 268 261 276 287 286 286 287 286 291 286 282 281 287 301 288 281 293 305 310 320 339 353 354 1 3 359 358
231 230 231 231 230 229 230 232 235 239 244 249 254 258 261 264 265 268 269 270 272 273 275 276 278 277 279 279 279 275 258 263 271 258 254 250 252 262 273 275 278 292 253 213 218 211 223 225 213 208 176 215 220 221 293 301 235 188 243 277 287 284 280 289 293 287 286 286 290 289 273 271 274 276 280 281 287 303 304 319 350 356 353 347 350 355 352 344
231 231 231 231 232 232 234 237 241 246 252 256 261 264 265 267 267 269 269 270 272 272 275 276 278 277 275 273 271 270 266 271 274 257 251 246 249 256 260 263 270 281 238 213 215 212 222 224 220 222 226 232 220 229 130 40 263 205 229 274 291 292 293 294 289 284 285 286 287 277 271 276 280 277 266 272 289 304 297 343 11 353 343 340 342 343 339 328
232 232 232 233 233 235 238 242 247 252 257 260 263 264 265 267 268 270 270 271 271 272 275 275 276 274 271 266 248 246 271 271 264 258 254 249 247 247 248 252 259 264 234 219 217 217 221 225 229 223 234 241 197 219 176 156 254 248 271 281 281 287 291 289 281 282 283 281 273 250 266 284 256 207 259 274 324 308 314 27 1 343 342 338 338 329 324 316
233 233 233 235 236 239 243 247 252 254 257 259 259 262 264 266 268 270 271 271 271 272 273 273 274 270 268 260 230 228 265 269 266 266 259 253 244 237 239 239 238 236 240 237 229 227 224 228 232 214 224 221 181 231 228 218 279 313 320 300 289 299 297 284 275 281 282 279 266 229 250 289 150 183 250 264 339 339 1 38 6 353 347 337 328 316 309 300
233 232 232 236 239 243 247 250 252 253 255 256 258 260 263 266 267 269 272 272 272 271 271 270 269 266 266 256 242 248 267 267 265 265 261 257 245 236 233 229 229 237 260 263 247 237 230 229 228 224 229 203 182 278 232 262 318 309 333 313 301 333 315 283 268 266 248 254 252 192 259 289 173 220 243 267 315 330 3 30 18 25 28 317 296 295 291 287
232 231 232 236 241 244 247 247 248 249 252 253 257 260 262 265 267 270 271 272 273 272 272 270 268 269 264 256 257 263 266 261 260 260 258 253 241 232 229 231 242 258 266 258 246 236 229 227 225 229 234 214 198 224 265 313 327 293 341 19 310 350 321 283 119 145 245 265 206 150 252 274 250 236 235 291 321 334 10 26 29 62 122 174 221 269 279 282
231 232 234 238 242 244 244 244 245 247 249 251 254 257 261 264 266 269 271 273 274 273 273 271 271 270 260 258 269 269 259 255 252 250 253 248 237 232 235 243 254 260 255 241 235 230 224 222 224 228 230 229 224 223 301 337 359 291 342 42 346 343 277 294 32 194 277 286 191 149 222 265 272 263 265 334 334 341 5 30 54 86 122 156 180 233 272 291
231 233 236 239 242 242 241 241 242 244 246 248 252 255 259 262 265 267 268 271 271 272 273 272 272 270 264 266 270 266 257 252 249 248 249 247 241 241 244 248 249 247 238 229 226 221 216 214 216 216 211 213 190 141 335 346 3 17 318 306 324 195 264 308 321 205 200 206 162 141 206 271 276 280 305 4 337 335 352 39 79 101 116 136 150 149 269 332
231 232 234 238 240 239 239 239 239 242 244 246 250 253 256 259 261 263 266 268 269 270 271 273 271 263 266 275 269 260 255 249 249 249 246 244 243 243 244 241 235 232 228 222 219 215 211 209 203 199 192 160 120 90 40 353 335 358 186 250 269 210 267 319 329 165 143 140 123 137 212 278 277 278 304 343 334 333 354 71 95 108 108 114 105 92 84 55
229 230 232 235 235 236 236 237 238 240 242 244 247 251 254 257 258 261 262 263 266 267 269 270 268 263 259 263 261 252 250 246 245 244 241 239 235 231 229 226 221 221 218 211 213 209 203 196 177 191 166 101 110 100 62 311 287 316 348 231 247 217 230 295 311 10 53 102 179 9 208 258 273 280 295 326 349 357 137 124 112 111 106 106 96 85 80 68
228 227 229 230 231 233 233 235 237 239 241 242 245 250 253 256 258 260 260 260 260 265 271 249 224 279 263 247 245 245 243 237 236 236 233 224 215 214 215 216 215 208 192 186 200 192 188 177 144 152 36 87 136 123 166 229 215 218 211 215 260 251 237 256 265 315 16 33 278 306 262 265 274 280 294 335 21 75 128 127 122 113 108 104 96 88 76 59
226 225 225 228 229 229 230 232 236 238 240 241 244 248 252 259 263 261 257 251 240 232 255 224 195 188 248 236 230 229 231 229 230 230 223 210 202 203 203 201 197 185 164 155 192 180 165 125 104 189 209 188 190 173 197 211 185 193 197 179 214 254 255 246 248 264 309 342 275 254 251 262 271 279 307 346 21 81 112 121 115 110 109 103 96 87 74 65
223 221 221 224 225 225 227 229 234 236 236 239 241 241 249 256 268 270 256 246 241 238 246 239 223 227 237 247 227 219 231 234 229 223 214 206 199 193 187 179 169 167 160 158 185 173 154 145 190 220 211 198 202 198 202 191 140 145 152 177 213 238 265 263 260 280 68 230 269 257 255 267 271 282 329 346 13 68 96 112 108 110 109 101 97 88 78 70
219 219 219 220 221 221 225 228 232 234 233 233 231 231 237 232 233 280 274 262 257 251 249 250 247 245 246 251 248 247 247 237 226 217 210 202 191 184 179 169 148 156 199 146 128 130 142 169 223 229 213 196 197 197 208 233 156 144 171 253 266 240 260 264 256 294 20 178 260 323 324 280 275 286 348 2 32 48 74 111 110 112 108 101 99 90 85 82
216 217 217 217 218 218 223 228 231 233 231 227 225 225 230 233 241 266 287 285 271 260 251 248 247 248 247 246 249 253 246 235 225 213 207 195 186 186 179 167 153 168 185 127 107 103 142 210 240 235 184 142 133 158 188 221 214 195 158 225 268 246 278 284 278 319 39 166 259 329 314 277 282 308 24 32 73 71 83 115 116 116 111 103 102 97 98 99
216 215 214 214 214 215 221 227 231 233 229 224 225 225 231 243 248 262 277 285 280 269 254 246 244 244 245 243 245 244 234 231 230 214 206 194 187 191 180 167 164 154 169 183 161 152 179 237 247 227 148 146 184 133 141 161 189 183 155 176 250 245 314 278 290 333 2 154 261 241 218 272 286 345 52 52 87 88 91 109 110 113 111 106 108 107 107 105
215 213 214 213 212 213 219 226 230 231 229 224 224 223 228 240 243 263 277 278 285 272 254 246 242 243 243 242 240 235 229 229 231 217 207 196 185 186 189 179 153 152 197 201 182 182 215 242 242 148 145 178 210 174 139 148 212 231 202 200 233 237 216 228 282 333 335 357 12 19 311 286 277 258 179 73 88 86 90 101 99 102 108 112 116 114 111 107
215 212 211 209 207 210 217 228 229 226 227 224 221 219 220 228 234 265 294 297 285 272 253 238 233 238 237 236 233 224 224 229 228 219 206 198 190 178 188 187 166 199 213 188 182 209 242 248 160 105 125 169 192 213 183 167 194 271 234 212 221 228 224 231 312 359 354 335 345 29 329 290 304 292 216 167 85 70 79 90 92 99 111 120 120 117 116 112
213 208 204 203 204 204 215 230 227 221 223 220 213 211 212 208 203 264 8 12 283 244 202 202 206 218 218 220 211 190 202 237 222 212 198 197 198 185 171 181 173 217 196 159 175 218 247 247 176 146 143 148 186 240 223 169 149 273 247 207 211 214 213 221 196 85 245 261 297 45 217 269 314 316 224 179 104 72 70 76 93 112 119 125 124 121 122 118
211 206 199 201 204 204 211 221 220 213 212 213 206 199 199 189 172 135 59 353 274 194 151 169 171 182 195 184 170 161 164 210 187 196 190 189 196 190 187 185 164 209 162 134 202 239 214 222 184 165 145 149 197 243 223 162 133 237 246 154 162 179 192 200 165 166 225 253 320 12 113 270 293 280 249 157 124 87 90 85 102 128 133 133 133 130 129 125
208 202 196 201 210 215 214 215 215 207 203 204 197 190 183 173 175 139 87 294 265 135 133 167 157 166 172 163 163 159 142 144 142 186 186 183 190 189 205 206 179 188 159 147 211 255 186 198 202 176 158 184 207 224 190 160 150 245 210 116 125 150 157 133 121 150 315 28 303 306 37 283 263 267 319 117 182 246 205 191 186 160 153 147 143 140 135 131
203 195 194 201 209 218 221 219 213 205 199 191 184 183 169 158 161 101 84 241 206 113 132 156 153 160 154 157 174 169 122 126 118 171 174 180 188 182 203 208 176 157 154 162 213 245 157 209 204 162 166 204 199 245 182 172 195 197 135 94 75 78 86 79 98 115 31 36 241 240 186 226 270 271 295 132 235 250 208 189 193 174 165 158 152 148 142 136
199 191 194 201 204 207 217 221 210 199 193 185 181 175 161 151 130 102 219 230 152 116 133 150 166 164 148 148 186 200 145 104 113 140 151 172 182 170 140 174 143 128 52 355 243 252 317 224 210 160 180 182 138 80 118 154 153 136 109 66 44 30 41 44 55 85 45 279 235 220 193 189 265 278 230 193 211 214 172 162 181 176 171 167 160 156 150 142
196 190 192 200 204 203 209 215 205 195 189 186 181 168 158 145 99 187 219 213 66 125 124 149 183 153 152 151 170 181 138 85 140 142 140 150 165 157 128 145 113 93 357 329 295 310 335 298 263 213 173 133 104 75 50 67 106 114 92 76 68 338 10 23 356 48 128 255 255 245 197 177 233 264 235 225 249 214 180 175 178 177 177 174 167 163 159 149
197 192 192 198 206 208 213 217 205 194 191 187 180 166 150 139 222 214 215 74 130 196 158 173 187 161 165 142 150 173 134 138 170 152 148 146 162 183 173 173 166 104 324 255 249 334 302 243 275 290 182 158 116 79 42 23 53 91 102 100 93 325 2 357 305 279 232 251 272 282 142 189 239 245 228 239 296 301 272 239 189 175 175 175 171 168 164 155
202 198 198 201 208 214 218 220 209 199 196 188 181 170 145 213 222 200 190 192 197 180 146 141 131 140 151 142 193 180 122 176 187 165 154 127 152 216 243 201 159 130 175 205 193 239 280 293 294 115 240 199 162 138 157 192 144 147 146 133 129 127 108 277 265 272 271 272 305 279 213 262 272 270 228 246 295 303 294 268 202 179 175 174 173 171 166 161
209 207 206 206 212 217 219 220 212 205 202 191 183 173 173 218 219 164 186 212 215 100 110 115 113 120 146 174 217 174 133 222 178 146 132 125 144 222 243 228 176 124 103 146 167 173 195 293 214 181 220 189 179 178 162 143 149 177 156 136 146 151 171 222 217 209 259 285 308 285 214 203 221 272 265 255 331 1 12 182 177 175 174 172 171 173 171 167
213 214 214 213 216 218 220 221 216 212 206 194 184 182 202 214 216 157 187 197 162 107 74 95 115 126 183 239 245 189 183 222 167 131 143 164 175 197 200 207 191 156 130 163 215 166 167 259 245 244 239 169 180 185 134 112 129 203 119 112 161 177 164 192 196 171 180 296 297 216 220 223 196 224 344 33 42 49 80 127 149 161 168 169 173 176 176 173
214 215 217 220 221 220 220 219 218 218 206 192 184 214 211 214 194 177 187 162 161 149 114 92 104 132 201 230 226 217 211 163 152 147 188 196 205 204 202 216 191 179 170 167 202 164 146 265 281 352 0 180 180 177 140 131 175 161 126 174 211 178 132 119 261 101 95 257 269 194 239 285 308 329 359 35 50 54 74 118 142 156 164 170 177 180 179 177
214 215 217 220 221 221 219 218 220 215 201 190 200 219 209 221 183 177 220 150 142 140 135 161 191 169 192 197 196 203 190 140 156 165 200 210 224 197 198 237 186 184 198 191 211 203 150 257 283 115 177 276 85 121 73 47 128 128 180 206 184 118 97 102 239 342 42 244 267 216 220 256 258 253 339 26 65 119 103 128 144 159 169 175 182 183 182 180
216 216 218 221 221 220 218 219 217 206 195 191 223 223 206 204 197 125 132 143 109 130 153 194 199 173 183 190 193 181 169 176 174 176 188 204 243 187 168 211 183 190 207 196 207 261 138 227 285 139 161 278 23 92 58 6 92 129 178 184 123 132 155 109 166 217 230 237 268 284 254 237 213 215 215 209 209 196 180 168 162 175 182 185 187 188 187 186
216 211 217 223 223 220 220 218 207 195 192 205 223 222 192 159 218 176 145 121 73 134 171 206 189 120 173 175 165 161 173 181 169 174 184 176 227 193 157 176 181 203 209 183 176 261 126 155 276 324 15 289 27 82 177 237 0 87 109 112 81 151 169 157 160 173 195 221 250 287 290 265 233 204 179 200 202 178 174 186 189 189 189 191 191 191 192 193
211 201 215 222 218 216 214 208 197 191 197 219 210 213 135 144 211 211 179 152 83 145 188 200 154 135 174 169 156 167 172 177 170 178 200 178 194 211 187 162 145 168 190 174 179 224 107 156 238 310 351 135 182 215 192 189 177 139 153 180 211 142 123 188 205 136 145 188 211 256 271 265 255 198 179 205 199 173 179 187 190 194 193 194 196 195 197 196
203 199 223 211 208 208 200 193 191 194 210 223 204 189 154 150 179 198 202 195 188 173 153 160 162 170 173 167 195 186 162 162 174 180 205 192 182 202 203 174 155 148 134 150 183 195 158 165 175 186 148 181 229 257 210 199 192 172 187 196 192 173 137 233 246 191 144 183 182 215 256 262 257 207 204 224 199 180 184 181 184 196 197 198 200 199 199 197
195 203 218 199 200 197 188 181 191 204 214 216 202 178 167 152 161 177 187 188 192 202 130 133 155 175 180 179 184 176 159 161 182 187 202 200 189 181 187 178 164 152 130 135 193 176 126 122 139 194 207 209 252 296 266 231 182 128 195 202 170 162 162 209 236 217 150 228 158 144 259 264 246 246 274 267 214 190 187 181 183 196 200 201 202 201 202 201
190 191 192 194 196 187 180 180 208 200 231 203 164 181 180 165 163 167 171 181 180 164 168 184 187 190 203 185 161 170 174 173 180 181 188 203 205 212 186 173 160 141 124 135 192 131 101 115 145 258 302 348 335 332 337 4 55 88 270 148 143 179 170 205 229 164 139 227 188 152 249 249 306 343 338 331 189 185 189 187 185 193 199 203 204 205 206 206
188 180 172 187 191 183 179 193 199 201 230 179 148 191 195 191 187 176 177 186 179 157 165 194 193 198 212 163 150 181 193 193 188 185 187 186 195 226 195 188 190 163 144 171 176 163 164 145 131 167 276 290 350 340 321 331 0 212 244 220 175 151 105 86 104 109 177 224 179 203 245 240 324 338 0 44 119 167 190 194 193 196 201 207 209 210 211 212
176 166 168 187 189 188 192 212 191 200 210 192 187 192 186 217 211 200 197 188 184 174 159 190 185 166 174 155 127 173 194 195 190 183 178 172 192 235 221 234 243 246 277 143 144 147 157 157 147 173 219 226 221 208 216 234 217 197 220 219 210 173 151 149 130 157 220 212 169 215 248 256 336 319 324 338 30 171 202 202 207 218 217 219 221 220 219 218
164 159 172 187 193 200 217 238 203 199 201 198 209 197 196 218 223 205 202 196 196 183 146 135 157 141 160 166 142 182 214 215 175 159 168 183 214 298 227 233 232 233 249 172 147 138 108 180 193 204 227 237 235 220 196 156 161 199 213 208 204 190 173 155 130 185 211 189 208 233 232 140 267 246 248 268 255 226 230 215 217 229 231 231 232 231 228 225
159 173 169 169 197 213 230 236 217 203 188 189 191 193 206 213 211 195 202 202 194 181 158 71 154 169 189 174 164 196 208 206 184 164 160 181 194 27 91 151 162 189 199 177 162 146 99 214 209 215 233 242 225 205 195 163 187 203 211 216 209 177 165 165 185 204 169 173 243 238 157 162 239 225 213 232 232 229 237 229 227 235 241 244 246 247 242 235
168 193 182 171 178 216 230 221 201 190 187 185 183 189 205 209 207 195 195 195 179 180 182 206 196 196 186 170 170 189 191 202 209 187 172 181 176 105 82 46 124 167 169 168 169 148 137 225 210 202 225 226 171 187 182 172 205 208 212 225 212 177 170 177 208 215 186 203 252 248 153 201 241 227 202 215 220 220 231 240 246 254 262 266 265 259 251 241
186 219 202 193 195 295 256 212 182 189 205 185 181 204 203 206 207 195 161 134 166 197 198 203 211 208 194 175 168 181 190 196 205 200 186 181 176 148 142 233 202 177 158 156 178 155 160 217 190 179 212 203 179 208 168 165 214 245 240 240 224 181 173 187 220 224 207 229 264 274 255 249 250 233 214 226 232 234 247 258 263 267 271 271 265 258 251 244
200 212 208 206 230 290 330 185 163 187 212 192 204 225 199 196 200 190 164 162 166 199 202 209 220 204 191 193 191 209 217 200 200 206 177 166 186 186 195 202 163 159 164 163 184 189 191 205 128 146 202 221 213 268 118 164 209 236 249 252 228 129 185 217 231 227 210 248 254 260 269 267 263 245 221 242 252 248 251 258 263 267 266 258 250 246 242 237
211 211 201 177 228 222 227 185 151 179 216 205 214 210 163 204 202 177 196 204 193 186 181 203 222 201 185 205 208 225 230 211 214 218 185 182 199 195 201 189 155 157 178 174 180 191 196 216 75 122 198 218 183 150 137 102 34 257 257 247 186 172 225 232 222 194 208 230 238 246 255 258 265 213 174 238 249 243 244 250 255 258 250 236 231 227 222 223
215 217 210 190 233 210 181 177 155 191 225 220 214 205 200 218 201 169 206 239 210 205 199 200 210 201 196 212 217 231 237 225 229 232 205 207 212 193 201 185 164 167 175 167 163 152 167 165 130 167 201 187 103 146 130 70 358 261 256 222 186 205 237 242 228 212 211 203 201 222 237 246 260 109 186 245 243 234 243 246 245 243 232 222 220 215 215 222